Weather History for KHHW - November, 2012

Change the Weather History Date:

Friday, November 23, 2012

  Actual Average Record
Temperature  
Mean Temperature 49 °F -  
Max Temperature 61 °F 64 °F 74 °F (2014)
Min Temperature 35 °F 41 °F 37 °F (2013)
Degree Days  
Heating Degree Days 16    
Moisture  
Dew Point 32 °F    
Average Humidity 47    
Maximum Humidity 89    
Minimum Humidity 21    
Precipitation  
Precipitation 0.00 in - - ()
Sea Level Pressure  
Sea Level Pressure 30.34 in    
Wind  
Wind Speed 8 mph ()    
Max Wind Speed 23 mph    
Max Gust Speed 31 mph    
Visibility 10.0 miles    
Events      
Averages and records for this station are not official NWS values.
T = Trace of Precipitation, MM = Missing Value Source: Averaged Metar Reports

Daily Weather History Graph

Daily Weather History Graph

Search for Another Location

Airport or City:

Trip Planner

Search our weather history database for the weather conditions in past years. The results will help you decide how hot, cold, wet, or windy it might be!

Date:

Astronomy

Nov. 23, 2012 Rise Set
Actual Time 7:02 AM CST 5:14 PM CST
Civil Twilight 6:35 AM CST 5:41 PM CST
Nautical Twilight 6:05 AM CST 6:12 PM CST
Astronomical Twilight 5:35 AM CST 6:42 PM CST
Moon 2:20 PM CST (11/23) 2:33 AM CST (11/23)
Length of Visible Light 11h 05m
Length of Day
10h 11m
Waxing Gibbous, 80% of the Moon is Illuminated
Nov 23
Waxing Gibbous
Nov 28
Full
Dec 6
Last Quarter
Dec 13
New
Dec 19
First Quarter

Hourly Weather History & Observations

Time (CST) Temp. Windchill Dew Point Humidity Pressure Visibility Wind Dir Wind Speed Gust Speed Precip Events Conditions
12:15 AM 58.3 °F - 51.8 °F 79% 30.13 in 10.0 mi Calm Calm - N/A   Scattered Clouds
12:35 AM 58.1 °F - 52.7 °F 82% 30.12 in 10.0 mi Calm Calm - N/A   Scattered Clouds
12:55 AM 57.2 °F - 52.7 °F 85% 30.13 in 10.0 mi ENE 4.6 mph - N/A   Scattered Clouds
1:15 AM 56.5 °F - 52.7 °F 87% 30.13 in 10.0 mi East 4.6 mph - N/A   Scattered Clouds
1:35 AM 56.5 °F - 53.4 °F 89% 30.13 in 10.0 mi East 3.5 mph - N/A   Scattered Clouds
1:55 AM 55.6 °F - 52.5 °F 89% 30.17 in 10.0 mi North 17.3 mph 23.0 mph N/A   Mostly Cloudy
2:15 AM 58.6 °F - 52.9 °F 81% 30.18 in 10.0 mi North 6.9 mph - N/A   Mostly Cloudy
2:35 AM 58.6 °F - 52.7 °F 81% 30.18 in 10.0 mi Calm Calm - N/A   Overcast
2:55 AM 58.1 °F - 52.5 °F 82% 30.18 in 10.0 mi Calm Calm - N/A   Overcast
3:15 AM 58.5 °F - 52.9 °F 82% 30.18 in 10.0 mi Calm Calm - N/A   Overcast
3:35 AM 58.3 °F - 52.9 °F 82% 30.18 in 10.0 mi North 5.8 mph - N/A   Overcast
3:55 AM 59.0 °F - 52.7 °F 80% 30.19 in 10.0 mi North 5.8 mph - N/A   Overcast
4:15 AM 59.4 °F - 53.1 °F 80% 30.21 in 10.0 mi North 6.9 mph - N/A   Overcast
4:35 AM 59.2 °F - 52.0 °F 77% 30.21 in 10.0 mi NNE 15.0 mph 23.0 mph N/A   Overcast
4:55 AM 58.8 °F - 50.5 °F 74% 30.23 in 10.0 mi NNE 13.8 mph 19.6 mph N/A   Overcast
5:15 AM 58.1 °F - 49.1 °F 72% 30.23 in 10.0 mi NNE 13.8 mph 18.4 mph N/A   Mostly Cloudy
5:35 AM 57.4 °F - 46.9 °F 68% 30.24 in 10.0 mi NNE 11.5 mph 20.7 mph N/A   Clear
5:55 AM 56.7 °F - 45.7 °F 67% 30.26 in 10.0 mi North 10.4 mph 18.4 mph N/A   Scattered Clouds
6:15 AM 56.3 °F - 43.5 °F 62% 30.27 in 10.0 mi NNE 12.7 mph 23.0 mph N/A   Mostly Cloudy
6:35 AM 55.6 °F - 42.4 °F 61% 30.28 in 10.0 mi NNE 9.2 mph 17.3 mph N/A   Overcast
6:55 AM 55.0 °F - 40.6 °F 58% 30.29 in 10.0 mi NNE 13.8 mph 20.7 mph N/A   Overcast
7:15 AM 55.4 °F - 36.9 °F 50% 30.31 in 10.0 mi NNE 11.5 mph 23.0 mph N/A   Overcast
7:35 AM 55.8 °F - 30.6 °F 38% 30.32 in 10.0 mi NNE 13.8 mph 24.2 mph N/A   Overcast
7:55 AM 55.6 °F - 29.3 °F 37% 30.34 in 10.0 mi NNE 13.8 mph 21.9 mph N/A   Overcast
8:15 AM 55.6 °F - 31.1 °F 39% 30.35 in 10.0 mi NNE 9.2 mph 20.7 mph N/A   Overcast
8:35 AM 55.6 °F - 31.1 °F 39% 30.36 in 10.0 mi NNE 10.4 mph 16.1 mph N/A   Overcast
8:55 AM 54.9 °F - 30.6 °F 40% 30.37 in 10.0 mi NNE 13.8 mph 17.3 mph N/A   Scattered Clouds
9:15 AM 57.4 °F - 31.6 °F 38% 30.38 in 10.0 mi NNE 10.4 mph 16.1 mph N/A   Scattered Clouds
9:35 AM 58.3 °F - 30.0 °F 34% 30.39 in 10.0 mi NNE 13.8 mph 17.3 mph N/A   Clear
9:55 AM 58.3 °F - 26.2 °F 29% 30.40 in 10.0 mi NNE 23.0 mph 31.1 mph N/A   Clear
10:15 AM 59.9 °F - 27.1 °F 29% 30.41 in 10.0 mi NNE 15.0 mph 24.2 mph N/A   Clear
10:35 AM 60.3 °F - 25.0 °F 26% 30.41 in 10.0 mi NNE 16.1 mph 28.8 mph N/A   Clear
10:55 AM 60.8 °F - 26.6 °F 27% 30.41 in 10.0 mi NNE 13.8 mph 23.0 mph N/A   Clear
11:15 AM 60.6 °F - 27.5 °F 28% 30.42 in 10.0 mi North 21.9 mph 28.8 mph N/A   Clear
11:35 AM 60.3 °F - 29.5 °F 31% 30.41 in 10.0 mi NNE 16.1 mph 23.0 mph N/A   Clear
11:55 AM 60.4 °F - 28.0 °F 29% 30.40 in 10.0 mi NNE 16.1 mph 28.8 mph N/A   Clear
12:15 PM 60.8 °F - 28.4 °F 29% 30.40 in 10.0 mi North 19.6 mph 25.3 mph N/A   Clear
12:35 PM 60.4 °F - 23.5 °F 24% 30.39 in 10.0 mi NNE 16.1 mph 27.6 mph N/A   Clear
12:55 PM 60.6 °F - 23.2 °F 24% 30.39 in 10.0 mi North 13.8 mph 25.3 mph N/A   Clear
1:15 PM 61.0 °F - 21.0 °F 21% 30.38 in 10.0 mi North 15.0 mph 25.3 mph N/A   Clear
1:35 PM 60.1 °F - 20.3 °F 22% 30.38 in 10.0 mi North 18.4 mph 27.6 mph N/A   Clear
1:55 PM 60.8 °F - 22.1 °F 23% 30.38 in 10.0 mi North 15.0 mph 26.5 mph N/A   Clear
2:15 PM 60.1 °F - 22.3 °F 23% 30.38 in 10.0 mi NNW 17.3 mph 24.2 mph N/A   Clear
2:35 PM 59.0 °F - 21.7 °F 24% 30.38 in 10.0 mi North 16.1 mph 27.6 mph N/A   Clear
2:55 PM 59.5 °F - 22.6 °F 24% 30.38 in 10.0 mi North 15.0 mph 23.0 mph N/A   Clear
3:15 PM 58.8 °F - 23.2 °F 25% 30.38 in 10.0 mi North 12.7 mph - N/A   Clear
3:35 PM 58.1 °F - 23.2 °F 26% 30.37 in 10.0 mi North 12.7 mph 21.9 mph N/A   Clear
3:55 PM 57.4 °F - 23.0 °F 27% 30.38 in 10.0 mi North 10.4 mph 21.9 mph N/A   Clear
4:15 PM 57.2 °F - 24.3 °F 28% 30.38 in 10.0 mi North 10.4 mph 16.1 mph N/A   Clear
4:35 PM 56.5 °F - 23.0 °F 27% 30.38 in 10.0 mi North 13.8 mph 18.4 mph N/A   Clear
4:55 PM 55.2 °F - 21.6 °F 27% 30.37 in 10.0 mi North 12.7 mph 18.4 mph N/A   Clear
5:15 PM 53.6 °F - 21.2 °F 28% 30.38 in 10.0 mi North 8.1 mph - N/A   Clear
5:35 PM 51.6 °F - 21.6 °F 31% 30.38 in 10.0 mi North 6.9 mph - N/A   Clear
5:55 PM 50.9 °F - 21.6 °F 32% 30.39 in 10.0 mi North 8.1 mph - N/A   Clear
6:15 PM 50.0 °F - 21.2 °F 32% 30.40 in 10.0 mi North 8.1 mph - N/A   Clear
6:35 PM 48.9 °F - 21.2 °F 34% 30.40 in 10.0 mi North 8.1 mph - N/A   Clear
6:55 PM 47.8 °F - 21.0 °F 35% 30.40 in 10.0 mi North 8.1 mph - N/A   Clear
7:15 PM 46.8 °F - 21.2 °F 36% 30.41 in 10.0 mi North 5.8 mph - N/A   Clear
7:35 PM 46.2 °F 44.1 °F 21.0 °F 37% 30.41 in 10.0 mi North 4.6 mph - N/A   Clear
7:55 PM 45.5 °F 44.2 °F 20.8 °F 38% 30.41 in 10.0 mi North 3.5 mph - N/A   Clear
8:15 PM 44.8 °F 42.4 °F 21.0 °F 39% 30.42 in 10.0 mi North 4.6 mph - N/A   Clear
8:35 PM 44.8 °F 41.0 °F 21.0 °F 39% 30.42 in 10.0 mi North 6.9 mph - N/A   Clear
8:55 PM 43.7 °F 41.1 °F 21.2 °F 41% 30.42 in 10.0 mi North 4.6 mph - N/A   Clear
9:15 PM 41.9 °F - 21.2 °F 44% 30.43 in 10.0 mi Calm Calm - N/A   Clear
9:35 PM 43.0 °F 41.3 °F 21.6 °F 43% 30.43 in 10.0 mi North 3.5 mph - N/A   Clear
9:55 PM 41.7 °F 38.8 °F 21.6 °F 45% 30.43 in 10.0 mi North 4.6 mph - N/A   Clear
10:15 PM 41.2 °F 39.2 °F 21.6 °F 46% 30.43 in 10.0 mi North 3.5 mph - N/A   Clear
10:35 PM 40.5 °F 35.8 °F 21.2 °F 46% 30.43 in 10.0 mi North 6.9 mph - N/A   Clear
10:55 PM 39.6 °F 35.4 °F 21.6 °F 49% 30.43 in 10.0 mi North 5.8 mph - N/A   Clear
11:15 PM 39.4 °F 34.5 °F 21.6 °F 49% 30.42 in 10.0 mi North 6.9 mph - N/A   Clear
11:35 PM 37.2 °F 31.9 °F 21.7 °F 54% 30.42 in 10.0 mi NNW 6.9 mph - N/A   Clear
11:55 PM 35.8 °F 31.9 °F 21.2 °F 55% 30.42 in 10.0 mi NNW 4.6 mph - N/A   Clear